Location: Epalinges
(46.5518°N, 6.6683°E)
Time: 20:09:41
(UTC+00:00)

Lacrosse 4 Rocket - Pass Details

Date: 20 June 2021
Orbit: 543 x 614 km, 68.0° (Epoch: 31 July)

Event Time Altitude Azimuth Distance (km) Brightness Sun altitude
Rises 02:48:00 0° 312° (NW) 2,734 4.9 -7.5°
Reaches altitude 10° 02:51:03 10° 288° (WNW) 1,824 3.7 -7.2°
Maximum altitude 02:53:17 14° 254° (WSW) 1,549 3.1 -6.9°
Drops below altitude 10° 02:55:29 10° 221° (SW) 1,806 3.3 -6.6°
Enters shadow 02:56:15 - 212° (SSW) 1,991 3.5 -6.5°
